Tracking 29762 objects as of 8-Oct-2024
HD Live streaming from Space Station
objects crossing your sky now

PALAPA B1

Track PALAPA B1 now!
PALAPA B1 is classified as:


NORAD ID: 14134
Int'l Code: 1983-059C
Perigee: 35,804.5 km
Apogee: 35,835.5 km
Inclination: 12.4 °
Period: 1,437.4 minutes
Semi major axis: 42190 km
RCS: 1.2604 m2 (large)
Launch date: June 18, 1983
Source: Indonesia (INDO)
Launch site: AIR FORCE EASTERN TEST RANGE (AFETR)
Your satellite tracking list
Your tracking list is empty




NASA's NSSDC Master Catalog

Two Line Element Set (TLE):
1 14134U 83059C   24281.31160196  .00000118  00000-0  00000-0 0  9992
2 14134  12.3751 333.7521 0003676 156.6020 200.3001  1.00178341114591
Source of the keplerian elements: AFSPC